[[{"header":{"parameterUnit":"m.s-1","parameterCategory":1,"la1":30.2991,"la2":30.254,"lo1":-89.0895,"lo2":-89.0444,"dy":0.0017,"dx":0.0017,"nx":28,"ny":28,"refTime":"2025-12-29T03:00:00:Z","depth":0,"parameterNumber":2,"parameterNumberName":"U-component_of_WINDS"},"data":[0,0,0,0,0,0,0,0,0,0,0,0,0,0,0,0,0,0,0,0,0,0,0,0,0,0,0,0,0,0,0,0,0,0,0,0,0,0,0,0,0,0,0,0,0,0,0,0,0,0,0,0,0,0,0,0,0,0,1.3265,1.3265,0,1.3253,1.3253,1.3253,1.3249,1.3249,1.3249,1.3249,1.3235,1.3234,1.3234,0,0,0,0,0,0,0,0,0,0,0,0,0,1.3283,1.3282,1.3265,1.3265,1.3265,1.3254,1.3253,1.3253,1.3249,1.3249,1.3249,1.3249,1.3235,1.3234,1.3234,0,0,0,0,0,0,0,0,0,0,0,0,0,1.3273,1.3282,1.3265,1.3262,1.3261,1.3254,1.3253,1.3253,1.3249,1.3249,1.3249,1.3249,1.3235,1.3234,1.3234,1.3228,0,0,1.3232,1.3231,0,0,0,0,0,0,0,0,1.3274,1.3273,1.3262,1.3262,1.3261,1.3253,1.3254,1.3245,1.3249,1.3254,1.3249,1.3249,1.324,1.3239,1.3237,1.3227,1.3227,1.3231,1.3231,1.3231,1.3231,0,0,0,0,0,0,0,1.3275,1.3273,1.326,1.3262,1.3262,1.326,1.3259,1.3252,1.3247,1.3253,1.3253,1.3252,1.324,1.3237,1.3236,1.3226,1.3232,1.3231,1.3231,1.323,1.3213,1.3213,0,0,0,0,0,0,1.3276,1.3274,1.3261,1.326,1.3268,1.326,1.3258,1.3255,1.3247,1.3245,1.3252,1.3251,1.3239,1.3237,1.3236,1.3229,1.3231,1.323,1.323,1.3213,1.3213,1.3213,0,0,0,0,0,0,1.3276,1.3275,1.3261,1.3267,1.3265,1.3259,1.3256,1.3255,1.3253,1.3246,1.3244,1.325,1.3239,1.3237,1.323,1.3229,1.323,1.3229,1.3213,1.3213,1.3213,1.3216,0,0,0,0,0,0,1.3277,1.3275,1.3273,1.3267,1.3265,1.3256,1.3256,1.3255,1.3252,1.3251,1.3244,1.3242,1.3238,1.3231,1.323,1.3228,1.3229,1.3213,1.3213,1.3213,1.3216,1.3216,1.3216,0,0,0,0,0,1.3278,1.3274,1.3273,1.3272,1.3262,1.3256,1.3255,1.3251,1.3252,1.3249,1.3245,1.3243,1.323,1.3231,1.3229,1.3227,1.3213,1.3213,1.3213,1.3216,1.3216,1.3216,0,0,0,0,0,0,1.3278,1.3273,1.3272,1.3266,1.3262,1.3256,1.3253,1.3251,1.3246,1.3246,1.3241,1.3239,1.3233,1.3229,1.3231,1.3222,1.3221,1.3221,1.3224,1.3224,1.3224,1.3225,1.3228,0,0,0,0,0,1.3278,1.3274,1.3269,1.3265,1.3263,1.3258,1.3255,1.3253,1.3248,1.3246,1.3241,1.3236,1.3231,1.3227,1.3222,1.3216,1.3214,1.3213,1.3213,1.3213,1.3213,1.321,1.321,1.3212,1.3212,1.3212,0,0,1.3277,1.3273,1.3271,1.3265,1.3261,1.3257,1.3257,1.3252,1.3249,1.3245,1.3239,1.3236,1.3229,1.3223,1.322,1.322,1.3212,1.3213,1.3213,1.3213,1.321,1.3209,1.3209,1.3212,1.3212,1.3212,0,0,1.3273,1.327,1.3266,1.3263,1.3258,1.3256,1.3255,1.3249,1.3247,1.3241,1.3239,1.3235,1.3226,1.3222,1.3219,1.3215,1.3213,1.3214,1.3213,1.321,1.321,1.321,1.3209,1.3208,1.3213,1.3213,1.3213,0,1.3272,1.3266,1.3264,1.326,1.3257,1.3255,1.3251,1.3248,1.3242,1.324,1.324,1.3229,1.3225,1.3218,1.3218,1.3215,1.3214,1.3214,1.3211,1.321,1.321,1.3209,1.3208,1.3213,1.3213,1.3213,1.3213,0,1.3265,1.3261,1.3258,1.3254,1.3251,1.3247,1.3244,1.3241,1.324,1.3237,1.3231,1.3227,1.3221,1.3219,1.3217,1.3212,1.3212,1.3212,1.3211,1.321,1.3209,1.3208,1.3213,1.3213,1.3213,1.3213,0,0,1.3259,1.3255,1.3254,1.3252,1.3248,1.3244,1.3241,1.3236,1.3234,1.323,1.3227,1.322,1.322,1.3216,1.3214,1.3211,1.3209,1.3211,1.3211,1.3211,1.3205,1.3205,1.3204,1.3208,1.3208,1.3208,1.3205,0,1.3254,1.3248,1.3247,1.3241,1.3238,1.3237,1.3234,1.3231,1.3228,1.3225,1.3222,1.3218,1.3218,1.3216,1.3214,1.321,1.3208,1.321,1.3205,1.3204,1.3206,1.3204,1.3204,1.3201,1.3205,1.3204,1.3204,0,1.3247,1.3244,1.3239,1.3236,1.3235,1.3232,1.3228,1.3225,1.3222,1.3221,1.3218,1.3216,1.3212,1.3213,1.3207,1.3209,1.3207,1.3205,1.3205,1.3203,1.3204,1.3202,1.32,1.3199,1.3204,1.3204,1.3204,0,1.3243,1.3238,1.3235,1.3233,1.323,1.3228,1.3227,1.3223,1.3221,1.3218,1.3217,1.3213,1.321,1.3207,1.3205,1.3205,1.32,1.32,1.3198,1.3198,1.3196,1.3196,1.3193,1.3195,1.3195,1.3195,1.3195,0,1.3237,1.3234,1.3233,1.3231,1.3227,1.3226,1.3222,1.3221,1.3218,1.3216,1.3215,1.3212,1.3209,1.3206,1.3204,1.32,1.3199,1.3197,1.3197,1.3197,1.3197,1.3195,1.3195,1.3195,1.3195,1.3195,1.3195,0,1.3232,1.3231,1.3227,1.3226,1.3225,1.3222,1.322,1.3218,1.3217,1.3213,1.3213,1.321,1.3207,1.3204,1.3199,1.3198,1.3194,1.3193,1.3195,1.3194,1.3193,1.3193,1.3187,1.3187,1.319,1.319,1.319,0,1.3228,1.3226,1.3224,1.3223,1.3222,1.3219,1.3217,1.3217,1.3215,1.3212,1.321,1.3207,1.3204,1.3199,1.3196,1.3193,1.3192,1.319,1.3191,1.3192,1.3191,1.3191,1.3191,1.319,1.319,1.319,1.319,0,1.3221,1.3221,1.3219,1.3218,1.3216,1.3214,1.3212,1.3211,1.321,1.3208,1.3205,1.3203,1.32,1.3196,1.3193,1.3191,1.319,1.319,1.3189,1.3189,1.319,1.319,1.3194,1.3189,1.3189,1.3189,1.3189,1.319,1.3216,1.3214,1.3213,1.3211,1.321,1.3209,1.3207,1.3207,1.3204,1.3202,1.3202,1.3199,1.3196,1.3192,1.319,1.3188,1.3188,1.3187,1.3187,1.3186,1.3186,1.3191,1.3187,1.3187,1.3187,1.3187,1.3187,0,1.3208,1.3208,1.3207,1.3205,1.3204,1.3205,1.3204,1.3202,1.32,1.3198,1.3197,1.3194,1.3191,1.3189,1.3187,1.3185,1.3185,1.3184,1.3184,1.3184,1.3186,1.3187,1.3185,1.3185,1.3185,1.3185,1.3185,1.3185,1.3204,1.3202,1.3202,1.3199,1.3199,1.3197,1.3196,1.3195,1.3194,1.3192,1.319,1.3189,1.3188,1.3185,1.3183,1.3183,1.3181,1.3181,1.3181,1.3183,1.3183,1.3183,1.3184,1.3181,1.3181,1.3178,1.3178,1.3178]},{"header":{"parameterUnit":"m.s-1","parameterCategory":1,"la1":30.2991,"la2":30.254,"lo1":-89.0895,"lo2":-89.0444,"dy":0.0017,"dx":0.0017,"nx":28,"ny":28,"refTime":"2025-12-29T03:00:00:Z","depth":0,"parameterNumber":3,"parameterNumberName":"V-component_of_WINDS"},"data":[0,0,0,0,0,0,0,0,0,0,0,0,0,0,0,0,0,0,0,0,0,0,0,0,0,0,0,0,0,0,0,0,0,0,0,0,0,0,0,0,0,0,0,0,0,0,0,0,0,0,0,0,0,0,0,0,0,0,-8.5034,-8.5036,0,-8.5214,-8.5216,-8.5218,-8.5133,-8.5129,-8.5124,-8.512,-8.5298,-8.5307,-8.5316,0,0,0,0,0,0,0,0,0,0,0,0,0,-8.4611,-8.4619,-8.5034,-8.5036,-8.5038,-8.5214,-8.5216,-8.5219,-8.5134,-8.5129,-8.5123,-8.5118,-8.5295,-8.5306,-8.5316,0,0,0,0,0,0,0,0,0,0,0,0,0,-8.4793,-8.4622,-8.5033,-8.5017,-8.5018,-8.5213,-8.5216,-8.5219,-8.5135,-8.5128,-8.5122,-8.5115,-8.5291,-8.5305,-8.5318,-8.5537,0,0,-8.5359,-8.5365,0,0,0,0,0,0,0,0,-8.4783,-8.4809,-8.5018,-8.5019,-8.502,-8.5144,-8.5132,-8.5326,-8.5137,-8.5091,-8.512,-8.5112,-8.5252,-8.5268,-8.5317,-8.5546,-8.5553,-8.536,-8.5368,-8.5374,-8.5378,0,0,0,0,0,0,0,-8.4771,-8.4801,-8.5105,-8.5021,-8.5022,-8.4999,-8.5018,-8.5169,-8.5207,-8.5094,-8.5088,-8.5111,-8.5251,-8.5304,-8.532,-8.5556,-8.536,-8.5372,-8.538,-8.5385,-8.5974,-8.5981,0,0,0,0,0,0,-8.4759,-8.4791,-8.5099,-8.511,-8.4882,-8.5013,-8.5033,-8.5111,-8.5205,-8.5213,-8.5117,-8.5107,-8.5284,-8.5305,-8.5326,-8.559,-8.5374,-8.5387,-8.5394,-8.5967,-8.5976,-8.5984,0,0,0,0,0,0,-8.475,-8.4788,-8.5092,-8.4949,-8.4986,-8.5027,-8.5115,-8.5118,-8.5171,-8.5223,-8.5228,-8.5164,-8.528,-8.5307,-8.5486,-8.5595,-8.5393,-8.5405,-8.5958,-8.597,-8.598,-8.6119,0,0,0,0,0,0,-8.4739,-8.4785,-8.487,-8.4952,-8.4994,-8.5251,-8.5122,-8.5127,-8.5195,-8.5184,-8.5269,-8.5276,-8.5277,-8.5466,-8.55,-8.561,-8.5415,-8.5948,-8.5963,-8.5976,-8.6105,-8.6134,-8.6159,0,0,0,0,0,-8.4724,-8.4901,-8.4875,-8.4913,-8.5102,-8.5257,-8.5281,-8.528,-8.5204,-8.529,-8.5323,-8.5273,-8.5578,-8.5486,-8.5522,-8.5638,-8.5941,-8.5959,-8.5975,-8.6093,-8.6128,-8.6158,0,0,0,0,0,0,-8.4828,-8.4911,-8.4883,-8.5092,-8.5169,-8.5243,-8.535,-8.5318,-8.5416,-8.54,-8.5393,-8.5413,-8.5598,-8.5635,-8.5531,-8.5855,-8.5747,-8.5773,-8.5825,-8.5859,-8.5885,-8.5872,-8.5427,0,0,0,0,0,-8.4876,-8.4998,-8.5062,-8.524,-8.528,-8.5309,-8.5377,-8.537,-8.5448,-8.5479,-8.5525,-8.5601,-8.5713,-8.5788,-8.5894,-8.611,-8.6127,-8.6208,-8.6234,-8.6256,-8.6278,-8.6395,-8.6432,-8.604,-8.604,-8.604,0,0,-8.4975,-8.5035,-8.5112,-8.5263,-8.5321,-8.5446,-8.5337,-8.5472,-8.5564,-8.5499,-8.5671,-8.5708,-8.5792,-8.5991,-8.608,-8.6027,-8.639,-8.6278,-8.6295,-8.6305,-8.6416,-8.6453,-8.6486,-8.6052,-8.6049,-8.6048,0,0,-8.5219,-8.5277,-8.5432,-8.5494,-8.5585,-8.5603,-8.564,-8.572,-8.5743,-8.5916,-8.587,-8.5978,-8.6172,-8.6234,-8.6291,-8.656,-8.6518,-8.6595,-8.6735,-8.6849,-8.688,-8.6907,-8.7004,-8.7038,-8.6616,-8.6617,-8.6617,0,-8.533,-8.5518,-8.5515,-8.5656,-8.5724,-8.5672,-8.5829,-8.5888,-8.6008,-8.6055,-8.5994,-8.6238,-8.6291,-8.6504,-8.657,-8.6617,-8.6659,-8.6585,-8.6876,-8.6904,-8.6929,-8.7021,-8.7057,-8.6626,-8.6625,-8.6624,-8.6623,0,-8.565,-8.5781,-8.5895,-8.6016,-8.6096,-8.6243,-8.6262,-8.6343,-8.6329,-8.6353,-8.653,-8.6592,-8.671,-8.676,-8.6746,-8.6971,-8.6936,-8.6876,-8.6768,-8.6975,-8.7061,-8.7096,-8.6638,-8.6635,-8.6632,-8.663,0,0,-8.5965,-8.6084,-8.6125,-8.618,-8.6277,-8.6377,-8.6521,-8.664,-8.671,-8.6794,-8.6915,-8.7081,-8.7027,-8.7092,-8.7085,-8.7185,-8.7395,-8.7113,-8.7115,-8.7164,-8.7647,-8.7691,-8.7732,-8.7368,-8.7375,-8.738,-8.764,0,-8.6217,-8.6474,-8.6476,-8.6711,-8.6832,-8.6785,-8.6911,-8.6983,-8.701,-8.7114,-8.7142,-8.7261,-8.718,-8.7219,-8.7316,-8.7349,-8.7492,-8.733,-8.7479,-8.7484,-8.746,-8.7777,-8.7825,-8.8067,-8.7673,-8.7679,-8.7683,0,-8.6545,-8.6643,-8.6892,-8.6972,-8.7023,-8.7136,-8.7245,-8.7346,-8.7427,-8.7439,-8.7513,-8.749,-8.7636,-8.7523,-8.7724,-8.7614,-8.7674,-8.77,-8.7709,-8.7723,-8.7597,-8.78,-8.8144,-8.8181,-8.7736,-8.7732,-8.7728,0,-8.6751,-8.6945,-8.7119,-8.7166,-8.7264,-8.7345,-8.7389,-8.7463,-8.7535,-8.7629,-8.7675,-8.7784,-8.7844,-8.7928,-8.7936,-8.7853,-8.8138,-8.8025,-8.8151,-8.8151,-8.8213,-8.821,-8.8573,-8.8252,-8.8252,-8.8251,-8.825,0,-8.7032,-8.7186,-8.7213,-8.732,-8.749,-8.749,-8.7659,-8.7695,-8.7762,-8.7874,-8.7839,-8.7944,-8.7948,-8.8055,-8.8061,-8.8227,-8.8253,-8.8266,-8.8266,-8.827,-8.8269,-8.831,-8.8293,-8.8261,-8.8258,-8.8257,-8.8255,0,-8.7291,-8.7315,-8.7502,-8.758,-8.7603,-8.7725,-8.7791,-8.7892,-8.7916,-8.8058,-8.8091,-8.8127,-8.8252,-8.8268,-8.8413,-8.8417,-8.8616,-8.8598,-8.859,-8.8587,-8.8712,-8.8701,-8.9115,-8.917,-8.8813,-8.8817,-8.8819,0,-8.7469,-8.7587,-8.7678,-8.7752,-8.7802,-8.7921,-8.7994,-8.7998,-8.8076,-8.8177,-8.8266,-8.8388,-8.8485,-8.8687,-8.8724,-8.8835,-8.8819,-8.8957,-8.8835,-8.8836,-8.8822,-8.8815,-8.8827,-8.898,-8.8984,-8.8987,-8.899,0,-8.7783,-8.779,-8.7898,-8.8012,-8.8101,-8.8189,-8.8272,-8.8334,-8.8349,-8.8437,-8.8566,-8.8642,-8.8791,-8.8913,-8.9022,-8.9064,-8.9031,-8.9028,-8.9063,-8.9068,-8.906,-8.9067,-8.8655,-8.9019,-8.9016,-8.9014,-8.9012,-8.9011,-8.8008,-8.811,-8.8192,-8.8314,-8.8377,-8.8456,-8.8556,-8.8593,-8.8701,-8.8825,-8.882,-8.8961,-8.9038,-8.9182,-8.9233,-8.9342,-8.9297,-8.9347,-8.936,-8.9373,-8.9386,-8.9042,-8.9362,-8.9361,-8.936,-8.936,-8.9359,0,-8.832,-8.8371,-8.8483,-8.8602,-8.8698,-8.8659,-8.875,-8.8832,-8.8958,-8.9034,-8.9131,-8.9279,-8.9396,-8.9444,-8.9559,-8.9637,-8.9624,-8.9667,-8.9662,-8.9672,-8.942,-8.9378,-8.9676,-8.9676,-8.9676,-8.9676,-8.9676,-8.9676,-8.8495,-8.8667,-8.8683,-8.8886,-8.8935,-8.9075,-8.913,-8.9203,-8.9263,-8.9431,-8.9529,-8.956,-8.9625,-8.9744,-8.985,-8.986,-8.9904,-8.9954,-8.9958,-8.9722,-8.969,-8.9659,-8.962,-8.9964,-8.9964,-9.0202,-9.0204,-9.0206]}]]